Location: *
(51.8167°N, 12.5000°E)
Time: 07:08:51
(UTC+00:00)

ADEOS Rocket - Pass Details

Date: 16 September 2019
Orbit: 859 x 1306 km, 98.7° (Epoch: 19 October)

Event Time Altitude Azimuth Distance (km) Brightness Sun altitude
Rises 18:19:10 0° 19° (NNE) 3,992 6.2 -9.3°
Reaches altitude 10° 18:21:56 10° 28° (NNE) 3,090 5.5 -9.7°
Maximum altitude 18:28:29 37° 94° (E) 1,833 4.0 -10.7°
Drops below altitude 10° 18:35:26 10° 159° (SSE) 3,286 5.4 -11.7°
Sets 18:38:27 0° 168° (SSE) 4,274 6.0 -12.1°
